Погода в Белозерье

Россия / Ульяновская область     54°19′49″N   47°10′37″E
темп.,
°C
ветер,
м/с
пор.,
м/с
влажн.,
%
обл.,
%
осадки,
мм/ч
давл.,
гПа
погр.,
м
14 июня, пн
пн1401:00+15ююв3395100 0.5 101361
04:00+15ююв229597 0.5 101425
07:00+18ююз2390100 0.0 1015128
10:00+20юз1283100 0.0 1015320
13:00+22юз3475100 1.1 1016653
16:00+20ю5882100 1.9 1017486
19:00+19ююз3687100 0.0 1015304
22:00+17ю1189100 0.1 101511
15 июня, вт
вт1501:00+16з2286100 0.0 101524
04:00+16ю118599 0.0 101511
07:00+17юв1186100 0.0 101691
10:00+18юв358399 0.1 1016382
13:00+18в2486100 0.0 1015230
16:00+22в4678100 0.0 1013544
19:00+21всв478480 0.3 1012360
22:00+18всв51288100 0.8 1011235
16 июня, ср
ср1601:00+18всв614875 0.0 1009286
04:00+16в410935 0.0 1008173
07:00+18вюв23875 0.0 1007175
10:00+22ю22715 0.0 1007489
13:00+25юз23635 0.0 1007960
16:00+26зсз446545 0.4 10061148
19:00+24зсз478021 3.0 1007312
22:00+19ссз4990100 5.1 1009315
17 июня, чт
чт1701:00+16ссз4119797 0.0 1012488
04:00+14ссз4109716 0.0 1014403
07:00+14ссз511864 0.0 1016551
10:00+17с610625 0.0 10171101
13:00+20с68492 0.0 10182079
16:00+19ссз596498 0.0 1019809
19:00+18сз610702 0.1 1020642
22:00+13сз33853 0.1 102146
18 июня, пт
пт1801:00+11сз22911 0.0 102224
04:00+11сз22900 0.0 102327
07:00+13ссз411770 0.0 1025427
10:00+17с68635 0.0 10251007
13:00+19ссв56520 0.0 10261496
16:00+19ссв565312 0.0 10261347
19:00+19св23685 0.0 1026494
22:00+14зюз117910 0.0 102710